Date String (YYYY-MM-DD hh:mm:ss) UTC,Instrument flags,Ambient pressure (hPa),Sample flow (lpm),Bypass flow (lpm),Sample temperature (°C),Ambient temperature (°C),ASC tube jacket temperature (°C),LED temperature (°C),Box temperature (°C),Sample RH (%),Span deviation,Mass concentration (μg/m³),Mass concentration (μg/m³),Mass concentration (μg/m³)
DateTimeUTC,F1_M11,P_M11,Q1_M11,Q2_M11,T1_M11,T2_M11,T3_M11,T4_M11,T5_M11,U1_M11,ZSPAN_M11,X0_M11,X2_M11,X1_M11
2022-09-24 10:00:00,,0829.8,5.02,0.00,30.5,28.9,00.0,39.3,32.3,10.6,0000.0,0004.59,0002.41,0001.82
2022-09-24 10:01:00,,0829.8,4.99,0.00,30.5,28.9,00.0,39.3,32.3,11.6,0000.0,0004.53,0002.39,0001.81
2022-09-24 10:02:00,,0829.8,5.01,0.00,30.5,28.9,00.0,39.4,32.3,12.5,0000.0,0004.58,0002.39,0001.80
2022-09-24 10:03:00,,0829.9,4.99,0.00,30.5,28.8,00.0,39.3,32.3,11.7,0000.0,0004.67,0002.41,0001.79
2022-09-24 10:04:00,,0829.9,5.01,0.00,30.5,28.9,00.0,39.3,32.3,11.7,0000.0,0005.23,0002.42,0001.79
2022-09-24 10:05:00,,0829.9,4.99,0.00,30.5,28.9,00.0,39.3,32.3,12.4,0000.0,0005.69,0002.43,0001.79
2022-09-24 10:06:00,,0830.0,5.00,0.00,30.5,28.9,00.0,39.3,32.3,12.3,0000.0,0005.58,0002.41,0001.79
2022-09-24 10:07:00,,0830.0,4.99,0.00,30.5,28.9,00.0,39.3,32.3,12.4,0000.0,0005.38,0002.35,0001.79
2022-09-24 10:08:00,,0830.0,4.99,0.00,30.5,28.9,00.0,39.3,32.3,12.5,0000.0,0005.06,0002.36,0001.79
2022-09-24 10:09:00,,0830.0,5.02,0.00,30.5,29.0,00.0,39.3,32.3,13.0,0000.0,0004.72,0002.34,0001.80
2022-09-24 10:10:00,,0829.9,4.99,0.00,30.5,29.0,00.0,39.3,32.4,13.1,0000.0,0004.79,0002.37,0001.80
2022-09-24 10:11:00,,0829.9,5.01,0.00,30.5,29.0,00.0,39.3,32.4,12.9,0000.0,0004.85,0002.40,0001.82
2022-09-24 10:12:00,,0830.1,4.99,0.00,30.5,29.0,00.0,39.3,32.4,12.7,0000.0,0004.91,0002.42,0001.83
2022-09-24 10:13:00,,0830.1,5.01,0.00,30.5,29.0,00.0,39.3,32.4,12.7,0000.0,0004.91,0002.43,0001.85
2022-09-24 10:14:00,,0830.0,4.99,0.00,30.6,29.0,00.0,39.3,32.4,12.9,0000.0,0004.85,0002.43,0001.87
2022-09-24 10:15:00,,0830.0,5.01,0.00,30.6,29.0,00.0,39.3,32.4,13.2,0000.0,0004.46,0002.44,0001.89
2022-09-24 10:16:00,,0830.1,4.99,0.00,30.6,29.0,00.0,39.3,32.4,13.2,0000.0,0003.63,0002.44,0001.91
2022-09-24 10:17:00,,0830.1,5.01,0.00,30.6,29.0,00.0,39.3,32.4,12.7,0000.0,0004.25,0002.49,0001.92
2022-09-24 10:18:00,,0830.0,4.99,0.00,30.6,29.1,00.0,39.3,32.4,12.5,0000.0,0004.43,0002.52,0001.93
2022-09-24 10:19:00,,0830.1,5.01,0.00,30.6,29.1,00.0,39.3,32.4,12.8,0000.0,0004.52,0002.54,0001.94
2022-09-24 10:20:00,,0830.1,5.00,0.00,30.6,29.1,00.0,39.3,32.4,12.9,0000.0,0004.67,0002.56,0001.94
2022-09-24 10:21:00,,0830.1,4.99,0.00,30.6,29.1,00.0,39.3,32.4,13.1,0000.0,0004.75,0002.60,0001.95
2022-09-24 10:22:00,,0830.1,5.01,0.00,30.6,29.1,00.0,39.3,32.4,13.1,0000.0,0004.81,0002.58,0001.95
2022-09-24 10:23:00,,0830.1,4.99,0.00,30.6,29.1,00.0,39.3,32.4,12.9,0000.0,0004.81,0002.59,0001.95
2022-09-24 10:24:00,,0830.1,4.99,0.00,30.6,29.1,00.0,39.3,32.4,13.0,0000.0,0004.74,0002.57,0001.94
2022-09-24 10:25:00,,0830.1,5.00,0.00,30.6,29.1,00.0,39.3,32.4,12.9,0000.0,0004.68,0002.54,0001.94
2022-09-24 10:26:00,,0830.1,4.99,0.00,30.6,29.1,00.0,39.4,32.4,12.9,0000.0,0004.60,0002.49,0001.92
2022-09-24 10:27:00,,0830.1,5.01,0.00,30.6,29.1,00.0,39.4,32.4,12.7,0000.0,0004.45,0002.43,0001.90
2022-09-24 10:28:00,,0830.1,4.99,0.00,30.6,29.1,00.0,39.4,32.4,12.5,0000.0,0004.05,0002.44,0001.91
2022-09-24 10:29:00,,0830.1,5.01,0.00,30.6,29.1,00.0,39.4,32.4,12.4,0000.0,0004.01,0002.46,0001.91
2022-09-24 10:30:00,,0830.1,4.99,0.00,30.6,29.1,00.0,39.4,32.4,12.4,0000.0,0004.05,0002.45,0001.91
2022-09-24 10:31:00,,0830.2,4.99,0.00,30.6,29.1,00.0,39.4,32.4,12.2,0000.0,0004.14,0002.52,0001.93
2022-09-24 10:32:00,,0830.3,5.00,0.00,30.6,29.1,00.0,39.4,32.4,12.0,0000.0,0004.54,0002.55,0001.94
2022-09-24 10:33:00,,0830.2,4.99,0.00,30.6,29.1,00.0,39.4,32.4,11.8,0000.0,0004.65,0002.56,0001.95
2022-09-24 10:34:00,,0830.2,5.01,0.00,30.6,29.1,00.0,39.4,32.4,11.7,0000.0,0004.78,0002.62,0001.95
2022-09-24 10:35:00,,0830.2,4.99,0.00,30.6,29.1,00.0,39.4,32.4,11.3,0000.0,0004.75,0002.60,0001.95
2022-09-24 10:36:00,,0830.1,5.01,0.00,30.6,29.1,00.0,39.4,32.4,11.2,0000.0,0004.88,0002.63,0001.96
2022-09-24 10:37:00,,0830.1,4.99,0.00,30.6,29.0,00.0,39.4,32.4,11.2,0000.0,0005.07,0002.65,0001.97
2022-09-24 10:38:00,,0830.2,5.01,0.00,30.6,29.0,00.0,39.4,32.4,11.0,0000.0,0005.20,0002.68,0001.97
2022-09-24 10:39:00,,0830.1,5.00,0.00,30.6,29.0,00.0,39.4,32.4,11.1,0000.0,0005.36,0002.66,0001.96
2022-09-24 10:40:00,,0830.1,5.01,0.00,30.6,28.9,00.0,39.4,32.4,11.1,0000.0,0005.53,0002.63,0001.96
2022-09-24 10:41:00,,0830.1,4.99,0.00,30.6,28.9,00.0,39.4,32.4,10.9,0000.0,0005.77,0002.65,0001.96
2022-09-24 10:42:00,,0830.1,5.01,0.00,30.6,28.9,00.0,39.4,32.4,10.8,0000.0,0005.71,0002.59,0001.94
2022-09-24 10:43:00,,0830.1,4.99,0.00,30.6,29.0,00.0,39.4,32.4,10.8,0000.0,0005.53,0002.56,0001.94
2022-09-24 10:44:00,,0830.1,5.01,0.00,30.6,29.0,00.0,39.4,32.4,10.7,0000.0,0005.13,0002.53,0001.91
2022-09-24 10:45:00,,0830.1,4.99,0.00,30.6,28.9,00.0,39.4,32.4,10.7,0000.0,0005.13,0002.48,0001.91
2022-09-24 10:46:00,,0830.1,4.99,0.00,30.6,28.9,00.0,39.4,32.4,10.7,0000.0,0005.27,0002.54,0001.93
2022-09-24 10:47:00,,0830.1,5.01,0.00,30.6,29.0,00.0,39.4,32.4,10.7,0000.0,0005.35,0002.52,0001.92
2022-09-24 10:48:00,,0830.1,4.99,0.00,30.6,29.0,00.0,39.4,32.4,10.7,0000.0,0005.18,0002.52,0001.92
2022-09-24 10:49:00,,0830.1,4.99,0.00,30.6,29.0,00.0,39.4,32.4,10.8,0000.0,0005.34,0002.60,0001.93
2022-09-24 10:50:00,,0830.1,5.01,0.00,30.6,29.0,00.0,39.4,32.4,11.6,0000.0,0005.27,0002.61,0001.93
2022-09-24 10:51:00,,0830.1,4.99,0.00,30.6,29.0,00.0,39.4,32.4,12.0,0000.0,0004.95,0002.60,0001.93
2022-09-24 10:52:00,,0830.1,5.00,0.00,30.6,29.1,00.0,39.4,32.4,12.0,0000.0,0004.46,0002.58,0001.95
2022-09-24 10:53:00,,0830.1,4.99,0.00,30.6,29.1,00.0,39.4,32.4,11.9,0000.0,0004.29,0002.59,0001.97
2022-09-24 10:54:00,,0830.1,5.00,0.00,30.6,29.1,00.0,39.4,32.4,11.7,0000.0,0004.18,0002.58,0001.98
2022-09-24 10:55:00,,0830.1,5.00,0.00,30.6,29.1,00.0,39.4,32.4,12.2,0000.0,0004.31,0002.62,0001.99
2022-09-24 10:56:00,,0830.1,4.99,0.00,30.6,29.0,00.0,39.4,32.4,11.9,0000.0,0004.28,0002.63,0002.00
2022-09-24 10:57:00,,0830.2,5.02,0.00,30.6,29.1,00.0,39.4,32.4,11.9,0000.0,0004.40,0002.64,0002.02
2022-09-24 10:58:00,,0830.3,5.00,0.00,30.6,29.1,00.0,39.4,32.4,11.9,0000.0,0004.19,0002.65,0002.03
2022-09-24 10:59:00,,0830.2,5.00,0.00,30.6,29.1,00.0,39.4,32.4,11.9,0000.0,0004.30,0002.69,0002.05
